Content
SEND FEEDBACK

Daily
Averages
Monthly
Summary
United States of America

WHEELOCK, NORTH DAKOTA


Home > North America > United States > North Dakota
Elevation: 2220 feet     Latitude: 48 17N     Longitude: 103 21W

WEATHER
 
SELECT A DAY
Number of Records: 204,635;   Date Range: 1/1/95 - 8/12/14
 
SHARE

PRINT THIS DATA

[ ← Previous Day ]
WEATHER ALMANAC - FEBRUARY 13, 2013
[ Next Day → ]
[ °C ]   °F
Weather ElementAverageHighLow
Temperature31.9 °F35.1 °F (11:52 am)28.9 °F (2:52 am)
Dewpoint27.3 °F32 °F (5:52 pm)23 °F (9:52 pm)
Humidity83.5 %92 % (8:52 am)72 % (9:52 pm)
Barometer29.75 in29.86 in (9:52 pm)29.64 in (7:52 am)
Wind Speed11.9 mph25.3 mph (8:52 pm)
Wind Gust31.1 mph (8:52 pm)
Weather ElementAverage
Visibility9.9 mi
Wind DirectionWSW (253.4 °)

Weather ElementTotal
Precipitation---
Heating Degree Days33 (Base 65)
Averaged from 29 records on February 13, 2013
WEATHER CONDITIONS BREAKOUT
WIND DIRECTION BREAKOUT
WEATHER BY HOUR - FEBRUARY 13, 2013
[ °C ]   °F
Local TimeTemperatureDewpointHumidityBarometerVisibilityWind DirectionWind SpeedGust SpeedPrecipitationEventsConditions
1:52 AM30.0 °F25.0 °F82 %29.77 in10.0 miCalmOvercast
2:52 AM28.9 °F25.0 °F85 %29.75 in10.0 miCalmOvercast
3:52 AM28.9 °F25.0 °F85 %29.70 in10.0 miSouth (190°)5.8 mphOvercast
4:52 AM28.9 °F26.1 °F89 %29.67 in10.0 miSSW (200°)3.5 mphOvercast
5:52 AM28.9 °F26.1 °F89 %29.66 in10.0 miCalmOvercast
6:52 AM28.9 °F26.1 °F89 %29.65 in10.0 miWSW (250°)9.2 mphMostly Cloudy
7:52 AM32.0 °F28.0 °F85 %29.64 in10.0 miWest (280°)15.0 mphOvercast
8:52 AM30.9 °F28.9 °F92 %29.66 in10.0 miSSW (210°)5.8 mphScattered Clouds
9:52 AM32.0 °F28.9 °F88 %29.67 in10.0 miWest (260°)6.9 mphClear
10:52 AM34.0 °F28.9 °F82 %29.68 in10.0 miNW (310°)9.2 mphClear
11:52 AM35.1 °F28.0 °F76 %29.71 in10.0 miNNW (330°)12.7 mphScattered Clouds
12:52 PM33.1 °F28.0 °F82 %29.73 in10.0 miNW (320°)16.1 mphOvercast
1:52 PM33.1 °F28.0 °F82 %29.75 in10.0 miNNW (330°)10.4 mphOvercast
2:52 PM33.1 °F28.0 °F82 %29.75 in10.0 miNW (320°)13.8 mphOvercast
3:31 PM33.8 °F28.4 °F81 %29.69 in10.0 miNW (310°)8.1 mphMostly Cloudy
3:52 PM33.1 °F28.9 °F85 %29.77 in8.0 miWNW (290°)6.9 mph0.00 inSnowLight Snow
4:52 PM34.0 °F28.9 °F82 %29.79 in10.0 miWNW (300°)11.5 mph0.00 inOvercast
5:52 PM35.1 °F32.0 °F89 %29.81 in10.0 miWNW (290°)11.5 mph0.00 inRainLight Rain
6:52 PM34.0 °F30.9 °F89 %29.82 in10.0 miWNW (300°)16.1 mph0.00 inOvercast
7:04 PM33.8 °F30.2 °F87 %29.74 in10.0 miNW (310°)13.8 mphMostly Cloudy
7:25 PM33.8 °F30.2 °F87 %29.77 in10.0 miWNW (300°)19.6 mph25.3 mphMostly Cloudy
7:52 PM34.0 °F30.0 °F85 %29.84 in10.0 miWNW (300°)18.4 mph25.3 mphOvercast
8:52 PM33.1 °F27.0 °F78 %29.85 in10.0 miWNW (290°)25.3 mph31.1 mphMostly Cloudy
9:52 PM30.9 °F23.0 °F72 %29.86 in10.0 miWNW (290°)17.3 mphOvercast
10:20 PM30.2 °F24.8 °F80 %29.79 in10.0 miWest (270°)17.3 mphOvercast
10:47 PM30.2 °F24.8 °F80 %29.79 in10.0 miWest (270°)17.3 mphOvercast
10:52 PM30.0 °F24.1 °F79 %29.86 in10.0 miWest (270°)17.3 mphOvercast
11:03 PM30.2 °F24.8 °F80 %29.80 in10.0 miWest (280°)16.1 mph25.3 mphOvercast
11:52 PM30.0 °F24.1 °F79 %29.86 in10.0 miWest (280°)20.7 mph28.8 mph0.00 inOvercast
Hourly data recorded from KISN, located miles away from Wheelock, North Dakota







STORIES FROM OUR PARTNERS